User: anonymous   Login
Location: Ottawa
(45.4170°N, 75.7000°W)
Time: 20:05:00
(UTC-05:00)
Language:

Aureole 3 Rocket - Orbit

View from above orbital plane
View from above orbital plane
View from above satellite
View from above satellite

Ground track
Ground track

The orbit data is extracted from the following two-line orbital elements,

1 12849U 81094B   14332.13370385  .00001465  00000-0  13457-3 0   506
2 12849 082.4910 161.3429 0910707 038.9839 327.3473 13.48509523616215
Epoch (UTC): 28 November 2014 03:12:32
Eccentricity: 0.0910707
inclination: 82.4910°
perigee height: 399 km
apogee height: 1757 km
right ascension of ascending node: 161.3429°
argument of perigee: 38.9839°
revolutions per day: 13.48509523
mean anomaly at epoch: 327.3473°
orbit number at epoch: 61621

The dashed part of the orbit path shows where the satellite is in the earth's shadow,  

DLR